SCP
0 0 0 0 0 0 0 0 0 0 0 0 0 0 0 0 0 0 0 0 0 0 0 0 0 0 0 0 0 0 0 0 0 0 0 0 0 0 0 0 0 0 0 0
0 0 0 0 0 0 0 0 0 0 0 0 0 0 0 0 0 0 0 0 0 0 0 0 0 0 0 0 0 0 0 0 0 0 0 0 0 0 0 0 0 0 0 0
0 0 0 0 0 0 0 0 0 0 0 0 0 0 0 0 0 0 0 0 0 0 0 0 0 0 0 0 0 0 0 0 0 0 0 0 0 0 0 0 0 0 0 0
0 0 0 0 0 0 0 0 0 0 0 0 0 0 0 0 0 0 0 0 0 0 0 0 0 0 0 0 0 0 0 0 0 0 0 0 0 0 0 0 0 0 0 0
0 0 0 0 0 0 0 0 0 0 0 0 0 0 0 0 0 0 0 0 0 0 0 0 0 0 0 0 0 0 0 0 0 0 0 0 0 0 0 0 0 0 0 0
0 0 0 0 0 0 0 0 0 0 0 0 0 0 0 0 0 0 0 0 0 0 0 0 0 0 0 0 0 0 0 0 0 0 0 0 0 0 0 0 0 0 0 0
0 0 0 0 0 0 0 0 0 0 0 0 0 0 0 0 0 0 0 0 0 0 0 0 0 0 0 0 0 0 0 0 0 0 0 0 0 0 0 0 0 0 0 0
0 0 0 0 0 0 0 0 0 0 0 0 0 0 0 0 0 0 0 0 0 0 0 0 0 0 0 0 0 0 0 0 0 0 0 0 0 0 0 0 0 0 0 0
0 0 0 0 0 0 0 0 0 0 0 0 0 0 0 0 0 0 0 0 0 0 0 0 0 0 0 0 0 0 0 0 0 0 0 0 0 0 0 0 0 0 0 0
0 0 0 0 0 0 0 0 0 0 0 0 0 0 0 0 0 0 0 0 0 0 0 0 0 0 0 0 0 0 0 0 0 0 0 0 0 0 0 0 0 0 0 0
0 0 0 0 0 0 0 0 0 0 0 0 0 0 0 0 0 0 0 0 0 0 0 0 0 0 0 0 0 0 0 0 0 0 0 0 0 0 0 0 0 0 0 0
0 0 0 0 0 0 0 0 0 0 0 0 0 0 0 0 0 0 0 0 0 0 0 0 0 0 0 0 0 0 0 0 0 0 0 0 0 0 0 0 0 0 0 0
0 0 0 0 0 0 0 0 0 0 0 0 0 0 0 0 0 0 0 0 0 0 0 0 0 0 0 0 0 0 0 0 0 0 0 0 0 0 0 0 0 0 0 0
0 0 0 0 0 0 0 0 0 0 0 0 0 0 0 0 0 0 0 0 0 0 0 0 0 0 0 0 0 0 0 0 0 0 0 0 0 0 0 0 0 0 0 0
0 0 0 0 0 0 0 0 0 0 0 0 0 0 0 0 0 0 0 0 0 0 0 0 0 0 0 0 0 0 0 0 0 0 0 0 0 0 0 0 0 0 0 0
0 0 0 0 0 0 0 0 0 0 0 0 0 0 0 0 0 0 0 0 0 0 0 0 0 0 0 0 0 0 0 0 0 0 0 0 0 0 0 0 0 0 0 0
0 0 0 0 0 0 0 0 0 0 0 0 0 0 0 0 0 0 0 0 0 0 0 0 0 0 0 0 0 0 0 0 0 0 0 0 0 0 0 0 0 0 0 0
0 0 0 0 0 0 0 0 0 0 0 0 0 0 0 0 0 0 0 0 0 0 0 0 0 0 0 0 0 0 0 0 0 0 0 0 0 0 0 0 0 0 0 0
0 0 0 0 0 0 0 0 0 0 0 0 0 0 0 0 0 0 0 0 0 0 0 0 0 0 0 0 0 0 0 0 0 0 0 0 0 0 0 0 0 0 0 0
0 0 0 0 0 0 0 0 0 0 0 0 0 0 0 0 0 0 0 0 0 0 0 0 0 0 0 0 0 0 0 0 0 0 0 0 0 0 0 0 0 0 0 0
0 0 0 0 0 0 0 0 0 0 0 0 0 0 0 0 0 0 0 0 0 0 0 0 0 0 0 0 0 0 0 0 0 0 0 0 0 0 0 0 0 0 0 0
0 0 0 0 0 0 0 0 0 0 0 0 0 0 0 0 0 0 0 0 0 0 0 0 0 0 0 0 0 0 0 0 0 0 0 0 0 0 0 0 0 0 0 0
0 0 0 0 0 0 0 0 0 0 0 0 0 0 0 0 0 0 0 0 0 0 0 0 0 0 0 0 0 0 0 0 0 0 0 0 0 0 0 0 0 0 0 0
0 0 0 0 0 0 0 0 0 0 0 0 0 0 0 0 0 0 0 0 0 0 0 0 0 0 0 0 0 0 0 0 0 0 0 0 0 0 0 0 0 0 0 0
0 0 0 0 0 0 0 0 0 0 0 0 0 0 0 0 0 0 0 0 0 0 0 0 0 0 0 0 0 0 0 0 0 0 0 0 0 0 0 0 0 0 0 0
0 0 0 0 0 0 0 -0 0 0 0 0 0 0 0 0 0 0 0 0 0 0 0 0 0 0 0 0 0 0 0 0 0 0 0 0 0 0 0 0 0 0 0 0
Wind_Speed_500mb
24 19 32 41 36 37 19 22 27 18 5 10 27 32 24 30 26 28 25 21 18 14 12 16 16 16 18 21 25 30 38 45 42 41 40 38 35 31 28 23 19 15 13 8
10 35 36 30 25 32 33 32 33 27 7 9 26 35 31 35 37 34 29 25 22 17 15 18 22 25 27 28 35 42 48 53 49 47 42 35 31 27 23 22 20 17 13 13
37 18 20 28 22 26 33 36 29 30 1 21 25 40 43 24 26 23 26 26 25 25 23 21 25 28 32 35 39 42 43 41 36 32 31 30 31 33 31 30 29 29 25 23
31 45 18 22 35 30 35 29 29 25 13 20 7 21 16 29 28 33 36 35 32 29 25 25 30 33 37 39 38 36 34 35 35 36 39 41 41 42 40 35 30 26 23 21
10 17 25 31 27 29 14 8 13 18 26 31 36 17 17 12 27 36 45 43 41 37 32 31 31 35 40 40 40 41 41 40 39 38 38 39 40 38 35 31 26 22 19 18
30 6 18 18 6 21 23 15 8 6 16 23 34 31 21 17 19 28 43 48 48 44 41 38 41 44 45 47 46 45 44 42 40 38 35 33 33 32 29 25 18 15 14 15
30 28 11 14 12 10 25 20 7 9 11 16 3 27 29 14 14 21 46 58 56 51 48 45 53 52 55 54 51 47 44 42 39 37 35 31 28 27 24 21 17 13 10 10
27 17 42 34 41 24 37 32 13 13 15 7 5 18 13 2 12 9 40 54 55 53 49 48 53 52 54 54 53 50 46 43 40 36 32 30 27 25 22 19 14 9 7 10
19 21 6 9 24 34 20 34 15 4 3 6 15 18 8 12 14 17 42 55 60 59 57 56 56 55 57 57 53 50 47 44 40 37 33 30 26 21 17 13 8 4 6 11
9 13 6 8 7 11 18 21 12 12 11 13 15 23 20 19 29 28 40 57 62 62 63 63 62 61 59 57 54 50 46 44 44 41 35 30 23 18 13 9 4 2 7 13
19 12 8 12 26 39 16 18 17 9 14 7 8 14 15 26 32 40 43 58 64 69 70 69 69 65 63 61 60 57 54 51 47 42 36 30 24 19 14 7 2 5 8 12
28 3 13 23 3 25 29 27 34 12 11 13 10 22 6 7 21 43 49 57 64 70 71 69 70 68 70 70 66 62 57 53 48 43 38 33 28 22 15 9 5 7 12 17
26 14 6 6 10 4 19 33 33 34 3 30 15 15 5 8 14 37 45 53 62 68 69 69 69 76 80 77 70 65 61 57 52 47 42 37 31 26 19 10 7 9 15 21
29 13 23 33 12 20 21 37 44 37 20 40 38 30 13 20 26 32 41 51 60 71 75 75 74 82 85 82 77 69 67 64 59 52 46 41 37 29 21 15 13 15 18 24
15 14 26 47 41 9 12 30 45 52 65 33 64 40 30 32 31 42 48 47 53 62 70 79 82 84 85 82 81 76 72 70 65 57 51 45 38 32 26 23 20 20 25 28
10 7 19 34 39 38 41 27 40 55 59 55 62 50 13 36 42 30 39 42 52 61 73 82 83 79 86 93 90 85 79 75 68 60 54 47 42 37 32 32 26 28 31 33
15 9 8 17 12 25 29 60 49 54 59 46 54 62 7 10 15 27 36 40 56 65 75 79 85 89 89 92 93 89 82 74 68 63 57 50 45 43 39 35 34 34 34 36
12 12 8 9 4 14 21 7 25 59 51 44 43 4 12 18 27 33 40 46 55 56 58 63 70 70 79 83 86 90 80 76 72 68 56 57 53 47 42 40 38 36 37 40
17 16 9 9 16 17 24 7 13 24 32 9 24 15 12 15 5 25 39 36 36 39 42 46 52 60 71 80 86 86 86 79 73 66 62 62 57 46 45 43 39 39 41 43
1 3 11 6 10 14 8 7 10 17 21 12 15 7 9 14 8 19 27 30 30 28 29 32 35 43 55 65 73 84 89 81 70 69 67 59 51 47 46 41 41 42 43 44
7 6 25 25 14 8 6 14 13 12 5 8 35 32 36 14 18 14 17 21 27 28 29 31 33 39 49 57 62 72 83 79 73 64 59 53 47 46 42 42 43 43 44 45
21 19 10 12 12 20 15 11 13 3 7 16 41 54 53 37 22 22 19 22 27 28 28 29 31 34 37 42 49 63 71 64 59 56 52 48 44 42 45 45 44 45 46 45
9 8 9 12 3 2 31 8 18 15 13 21 33 37 34 36 31 28 24 27 30 31 29 25 25 28 33 38 43 49 56 56 54 54 52 47 46 47 47 46 47 48 48 48
8 6 5 8 11 7 26 13 26 21 17 17 22 25 34 31 29 33 35 39 37 29 24 23 28 34 37 41 44 46 44 46 49 53 53 53 53 51 50 50 50 51 51 50
3 14 8 2 2 1 8 30 18 27 31 23 27 27 28 34 39 44 45 38 30 27 30 26 27 34 43 46 47 47 47 50 54 56 59 60 57 54 53 53 54 54 53 52
14 11 10 6 17 7 19 56 56 43 41 30 23 28 32 33 35 48 45 31 27 28 29 30 34 41 47 52 55 53 47 51 57 61 64 64 61 57 55 56 55 56 56 56
Wind_Direction_500mb
200 219 222 225 227 247 288 274 261 252 122 260 242 253 230 196 213 217 219 219 216 211 217 198 185 163 154 150 147 150 154 154 159 158 159 153 153 149 145 140 140 137 139 142
187 227 237 247 266 235 240 253 256 263 163 245 266 263 256 195 216 222 222 215 207 197 184 182 176 163 156 156 156 153 153 150 150 147 150 155 152 149 140 133 132 122 113 103
221 227 223 220 225 222 232 242 251 256 138 238 274 267 251 209 216 224 224 212 200 190 179 172 166 163 164 158 154 154 152 154 153 155 159 155 147 136 127 121 117 111 106 99
246 241 202 196 228 217 243 227 248 257 256 264 168 283 271 193 206 210 210 201 192 180 170 165 164 166 170 170 168 167 170 166 158 151 147 143 141 136 130 125 111 100 88 78
218 182 198 214 215 202 243 124 210 243 257 270 253 268 280 165 222 209 207 200 188 182 172 162 158 163 162 158 160 161 159 155 150 148 144 141 137 132 125 115 106 92 76 63
263 14 221 223 92 198 134 115 106 213 255 257 240 223 264 191 229 200 195 194 184 176 169 162 164 160 160 158 157 156 156 153 150 148 143 141 139 133 128 118 110 97 71 44
225 224 186 169 146 156 191 173 218 229 211 252 350 212 251 197 180 198 186 187 182 178 173 170 167 163 161 161 159 158 158 155 154 153 150 147 142 137 134 130 123 108 85 39
210 223 197 197 214 194 199 195 195 226 220 235 98 228 234 303 142 162 185 182 178 179 179 179 174 171 169 167 165 165 165 164 162 160 156 153 150 145 141 135 124 102 57 16
207 234 254 198 214 209 191 221 241 59 194 272 205 244 230 170 182 183 175 179 182 184 183 182 181 180 178 175 173 172 172 172 171 170 169 166 163 157 145 134 127 94 6 348
217 245 191 153 169 233 207 166 182 216 221 232 233 244 235 209 200 185 180 185 186 187 186 187 187 186 185 182 179 179 181 183 179 176 174 171 167 164 161 161 146 344 322 317
195 218 121 153 208 187 176 199 217 228 228 242 262 246 172 202 192 189 189 189 187 188 190 189 192 191 191 187 187 187 188 189 184 181 179 178 179 186 183 186 235 297 312 322
204 118 193 199 115 246 223 213 201 206 194 237 289 260 115 139 177 183 190 190 192 193 192 192 194 194 195 195 193 193 192 191 189 187 187 189 191 199 203 211 248 307 321 323
172 205 181 214 200 195 223 217 227 233 1 231 202 248 131 154 184 183 184 190 192 191 193 194 195 200 202 201 198 196 196 195 194 194 195 198 201 206 210 223 260 292 311 316
180 174 215 227 216 155 201 208 208 209 226 238 232 234 181 202 188 181 185 188 189 193 194 195 198 203 205 205 203 199 200 199 199 200 201 204 208 211 218 229 254 283 298 312
191 226 226 252 270 268 250 220 210 209 225 217 245 234 224 202 196 189 189 186 187 193 196 200 201 203 204 204 205 203 205 202 203 203 205 208 213 219 229 237 249 268 283 304
192 234 220 254 255 251 259 252 239 223 232 235 246 254 225 210 198 193 191 188 194 198 201 204 205 203 204 208 205 206 205 203 205 206 209 215 221 226 232 239 252 265 279 297
171 186 182 250 258 251 253 230 235 237 230 229 233 241 133 105 161 206 209 203 207 208 211 206 206 208 208 208 209 207 204 207 207 210 214 224 227 234 235 245 254 262 279 293
173 188 184 262 120 235 252 304 256 236 243 228 243 101 149 146 193 227 234 232 231 225 221 218 213 209 213 212 211 212 211 213 211 213 221 225 229 233 240 251 253 265 278 291
209 201 211 201 220 306 287 205 197 193 244 241 214 124 130 128 137 261 243 233 235 235 232 231 231 228 223 224 223 218 213 213 212 217 226 225 231 235 249 250 257 269 280 290
223 333 213 149 209 235 340 79 79 82 258 198 180 152 91 107 219 245 213 218 217 222 229 230 227 221 224 225 220 220 214 213 214 223 222 228 231 245 249 252 262 271 280 289
167 202 219 229 241 259 187 139 155 151 273 109 168 184 173 191 215 179 182 196 214 219 217 216 215 218 218 218 219 217 214 216 218 215 222 227 238 245 249 255 263 270 280 287
188 175 198 220 220 242 140 100 184 327 37 169 184 197 195 196 190 210 213 203 198 199 199 201 204 207 212 213 213 214 215 213 214 217 221 232 239 247 252 255 262 270 278 280
216 223 174 210 217 73 183 85 171 187 195 205 207 209 208 203 200 198 204 195 186 182 179 186 200 209 211 212 211 209 206 210 212 217 226 232 240 245 250 255 261 268 272 274
230 177 205 168 179 191 197 195 197 205 204 189 187 197 197 203 212 211 194 177 176 182 196 211 218 219 217 211 205 205 208 213 223 231 231 235 240 245 250 255 261 265 266 271
122 153 156 5 312 187 223 198 203 227 229 220 213 212 217 219 215 198 185 185 193 199 202 212 223 228 221 215 209 210 218 230 234 233 234 237 241 246 251 255 260 264 264 270
185 161 180 185 185 177 188 209 216 220 224 216 219 218 215 215 214 200 196 200 205 210 213 224 233 235 229 223 219 222 235 238 238 237 237 240 243 247 253 257 260 263 264 271
Wind_Speed_850mb
24 19 32 41 36 37 19 22 27 18 5 10 27 32 24 30 26 28 25 21 18 14 12 16 16 16 18 21 25 30 38 45 42 41 40 38 35 31 28 23 19 15 13 8
10 35 36 30 25 32 33 32 33 27 7 9 26 35 31 35 37 34 29 25 22 17 15 18 22 25 27 28 35 42 48 53 49 47 42 35 31 27 23 22 20 17 13 13
37 18 20 28 22 26 33 36 29 30 1 21 25 40 43 24 26 23 26 26 25 25 23 21 25 28 32 35 39 42 43 41 36 32 31 30 31 33 31 30 29 29 25 23
31 45 18 22 35 30 35 29 29 25 13 20 7 21 16 29 28 33 36 35 32 29 25 25 30 33 37 39 38 36 34 35 35 36 39 41 41 42 40 35 30 26 23 21
10 17 25 31 27 29 14 8 13 18 26 31 36 17 17 12 27 36 45 43 41 37 32 31 31 35 40 40 40 41 41 40 39 38 38 39 40 38 35 31 26 22 19 18
30 6 18 18 6 21 23 15 8 6 16 23 34 31 21 17 19 28 43 48 48 44 41 38 41 44 45 47 46 45 44 42 40 38 35 33 33 32 29 25 18 15 14 15
30 28 11 14 12 10 25 20 7 9 11 16 3 27 29 14 14 21 46 58 56 51 48 45 53 52 55 54 51 47 44 42 39 37 35 31 28 27 24 21 17 13 10 10
27 17 42 34 41 24 37 32 13 13 15 7 5 18 13 2 12 9 40 54 55 53 49 48 53 52 54 54 53 50 46 43 40 36 32 30 27 25 22 19 14 9 7 10
19 21 6 9 24 34 20 34 15 4 3 6 15 18 8 12 14 17 42 55 60 59 57 56 56 55 57 57 53 50 47 44 40 37 33 30 26 21 17 13 8 4 6 11
9 13 6 8 7 11 18 21 12 12 11 13 15 23 20 19 29 28 40 57 62 62 63 63 62 61 59 57 54 50 46 44 44 41 35 30 23 18 13 9 4 2 7 13
19 12 8 12 26 39 16 18 17 9 14 7 8 14 15 26 32 40 43 58 64 69 70 69 69 65 63 61 60 57 54 51 47 42 36 30 24 19 14 7 2 5 8 12
28 3 13 23 3 25 29 27 34 12 11 13 10 22 6 7 21 43 49 57 64 70 71 69 70 68 70 70 66 62 57 53 48 43 38 33 28 22 15 9 5 7 12 17
26 14 6 6 10 4 19 33 33 34 3 30 15 15 5 8 14 37 45 53 62 68 69 69 69 76 80 77 70 65 61 57 52 47 42 37 31 26 19 10 7 9 15 21
29 13 23 33 12 20 21 37 44 37 20 40 38 30 13 20 26 32 41 51 60 71 75 75 74 82 85 82 77 69 67 64 59 52 46 41 37 29 21 15 13 15 18 24
15 14 26 47 41 9 12 30 45 52 65 33 64 40 30 32 31 42 48 47 53 62 70 79 82 84 85 82 81 76 72 70 65 57 51 45 38 32 26 23 20 20 25 28
10 7 19 34 39 38 41 27 40 55 59 55 62 50 13 36 42 30 39 42 52 61 73 82 83 79 86 93 90 85 79 75 68 60 54 47 42 37 32 32 26 28 31 33
15 9 8 17 12 25 29 60 49 54 59 46 54 62 7 10 15 27 36 40 56 65 75 79 85 89 89 92 93 89 82 74 68 63 57 50 45 43 39 35 34 34 34 36
12 12 8 9 4 14 21 7 25 59 51 44 43 4 12 18 27 33 40 46 55 56 58 63 70 70 79 83 86 90 80 76 72 68 56 57 53 47 42 40 38 36 37 40
17 16 9 9 16 17 24 7 13 24 32 9 24 15 12 15 5 25 39 36 36 39 42 46 52 60 71 80 86 86 86 79 73 66 62 62 57 46 45 43 39 39 41 43
1 3 11 6 10 14 8 7 10 17 21 12 15 7 9 14 8 19 27 30 30 28 29 32 35 43 55 65 73 84 89 81 70 69 67 59 51 47 46 41 41 42 43 44
7 6 25 25 14 8 6 14 13 12 5 8 35 32 36 14 18 14 17 21 27 28 29 31 33 39 49 57 62 72 83 79 73 64 59 53 47 46 42 42 43 43 44 45
21 19 10 12 12 20 15 11 13 3 7 16 41 54 53 37 22 22 19 22 27 28 28 29 31 34 37 42 49 63 71 64 59 56 52 48 44 42 45 45 44 45 46 45
9 8 9 12 3 2 31 8 18 15 13 21 33 37 34 36 31 28 24 27 30 31 29 25 25 28 33 38 43 49 56 56 54 54 52 47 46 47 47 46 47 48 48 48
8 6 5 8 11 7 26 13 26 21 17 17 22 25 34 31 29 33 35 39 37 29 24 23 28 34 37 41 44 46 44 46 49 53 53 53 53 51 50 50 50 51 51 50
3 14 8 2 2 1 8 30 18 27 31 23 27 27 28 34 39 44 45 38 30 27 30 26 27 34 43 46 47 47 47 50 54 56 59 60 57 54 53 53 54 54 53 52
14 11 10 6 17 7 19 56 56 43 41 30 23 28 32 33 35 48 45 31 27 28 29 30 34 41 47 52 55 53 47 51 57 61 64 64 61 57 55 56 55 56 56 56
Wind_Direction_850mb
200 219 222 225 227 247 288 274 261 252 122 260 242 253 230 196 213 217 219 219 216 211 217 198 185 163 154 150 147 150 154 154 159 158 159 153 153 149 145 140 140 137 139 142
187 227 237 247 266 235 240 253 256 263 163 245 266 263 256 195 216 222 222 215 207 197 184 182 176 163 156 156 156 153 153 150 150 147 150 155 152 149 140 133 132 122 113 103
221 227 223 220 225 222 232 242 251 256 138 238 274 267 251 209 216 224 224 212 200 190 179 172 166 163 164 158 154 154 152 154 153 155 159 155 147 136 127 121 117 111 106 99
246 241 202 196 228 217 243 227 248 257 256 264 168 283 271 193 206 210 210 201 192 180 170 165 164 166 170 170 168 167 170 166 158 151 147 143 141 136 130 125 111 100 88 78
218 182 198 214 215 202 243 124 210 243 257 270 253 268 280 165 222 209 207 200 188 182 172 162 158 163 162 158 160 161 159 155 150 148 144 141 137 132 125 115 106 92 76 63
263 14 221 223 92 198 134 115 106 213 255 257 240 223 264 191 229 200 195 194 184 176 169 162 164 160 160 158 157 156 156 153 150 148 143 141 139 133 128 118 110 97 71 44
225 224 186 169 146 156 191 173 218 229 211 252 350 212 251 197 180 198 186 187 182 178 173 170 167 163 161 161 159 158 158 155 154 153 150 147 142 137 134 130 123 108 85 39
210 223 197 197 214 194 199 195 195 226 220 235 98 228 234 303 142 162 185 182 178 179 179 179 174 171 169 167 165 165 165 164 162 160 156 153 150 145 141 135 124 102 57 16
207 234 254 198 214 209 191 221 241 59 194 272 205 244 230 170 182 183 175 179 182 184 183 182 181 180 178 175 173 172 172 172 171 170 169 166 163 157 145 134 127 94 6 348
217 245 191 153 169 233 207 166 182 216 221 232 233 244 235 209 200 185 180 185 186 187 186 187 187 186 185 182 179 179 181 183 179 176 174 171 167 164 161 161 146 344 322 317
195 218 121 153 208 187 176 199 217 228 228 242 262 246 172 202 192 189 189 189 187 188 190 189 192 191 191 187 187 187 188 189 184 181 179 178 179 186 183 186 235 297 312 322
204 118 193 199 115 246 223 213 201 206 194 237 289 260 115 139 177 183 190 190 192 193 192 192 194 194 195 195 193 193 192 191 189 187 187 189 191 199 203 211 248 307 321 323
172 205 181 214 200 195 223 217 227 233 1 231 202 248 131 154 184 183 184 190 192 191 193 194 195 200 202 201 198 196 196 195 194 194 195 198 201 206 210 223 260 292 311 316
180 174 215 227 216 155 201 208 208 209 226 238 232 234 181 202 188 181 185 188 189 193 194 195 198 203 205 205 203 199 200 199 199 200 201 204 208 211 218 229 254 283 298 312
191 226 226 252 270 268 250 220 210 209 225 217 245 234 224 202 196 189 189 186 187 193 196 200 201 203 204 204 205 203 205 202 203 203 205 208 213 219 229 237 249 268 283 304
192 234 220 254 255 251 259 252 239 223 232 235 246 254 225 210 198 193 191 188 194 198 201 204 205 203 204 208 205 206 205 203 205 206 209 215 221 226 232 239 252 265 279 297
171 186 182 250 258 251 253 230 235 237 230 229 233 241 133 105 161 206 209 203 207 208 211 206 206 208 208 208 209 207 204 207 207 210 214 224 227 234 235 245 254 262 279 293
173 188 184 262 120 235 252 304 256 236 243 228 243 101 149 146 193 227 234 232 231 225 221 218 213 209 213 212 211 212 211 213 211 213 221 225 229 233 240 251 253 265 278 291
209 201 211 201 220 306 287 205 197 193 244 241 214 124 130 128 137 261 243 233 235 235 232 231 231 228 223 224 223 218 213 213 212 217 226 225 231 235 249 250 257 269 280 290
223 333 213 149 209 235 340 79 79 82 258 198 180 152 91 107 219 245 213 218 217 222 229 230 227 221 224 225 220 220 214 213 214 223 222 228 231 245 249 252 262 271 280 289
167 202 219 229 241 259 187 139 155 151 273 109 168 184 173 191 215 179 182 196 214 219 217 216 215 218 218 218 219 217 214 216 218 215 222 227 238 245 249 255 263 270 280 287
188 175 198 220 220 242 140 100 184 327 37 169 184 197 195 196 190 210 213 203 198 199 199 201 204 207 212 213 213 214 215 213 214 217 221 232 239 247 252 255 262 270 278 280
216 223 174 210 217 73 183 85 171 187 195 205 207 209 208 203 200 198 204 195 186 182 179 186 200 209 211 212 211 209 206 210 212 217 226 232 240 245 250 255 261 268 272 274
230 177 205 168 179 191 197 195 197 205 204 189 187 197 197 203 212 211 194 177 176 182 196 211 218 219 217 211 205 205 208 213 223 231 231 235 240 245 250 255 261 265 266 271
122 153 156 5 312 187 223 198 203 227 229 220 213 212 217 219 215 198 185 185 193 199 202 212 223 228 221 215 209 210 218 230 234 233 234 237 241 246 251 255 260 264 264 270
185 161 180 185 185 177 188 209 216 220 224 216 219 218 215 215 214 200 196 200 205 210 213 224 233 235 229 223 219 222 235 238 238 237 237 240 243 247 253 257 260 263 264 271